IZ8GMP-13 Weather Reports


Display with metric or nautical units.
time (UTC)temp
F
wind
direction
speed
MPH
gust
MPH
rain 1hr
in
rain 24hr
in
rain mn
in
humidity
%
barometer
mb
20260507093655 80 0.0 0.0 0.00 0.00 0.00 21 1010.5
20260507091651 70 0.0 0.0 0.00 0.00 0.00 46 1010.8
20260507085647 70 0.0 0.0 0.00 0.00 0.00 50 1011.2
20260507081639 70 0.0 0.0 0.00 0.00 0.00 52 1011.9
20260507075635 70 0.0 0.0 0.00 0.00 0.00 48 1012.0
20260507065623 71 0.0 0.0 0.00 0.00 0.00 54 1012.9
20260507063619 69 0.0 0.0 0.00 0.00 0.00 58 1013.4
20260507061615 66 0.0 0.0 0.00 0.00 0.00 66 1013.6
20260507055611 66 0.0 0.0 0.00 0.00 0.00 67 1013.4
20260507053608 66 0.0 0.0 0.00 0.00 0.00 67 1013.2
20260507051604 64 0.0 0.0 0.00 0.00 0.00 71 1013.5
20260507045600 63 0.0 0.0 0.00 0.00 0.00 72 1013.6
20260507043556 63 0.0 0.0 0.00 0.00 0.00 74 1013.8
20260507041552 63 0.0 0.0 0.00 0.00 0.00 76 1013.9
20260507035548 63 0.0 0.0 0.00 0.00 0.00 75 1013.8
20260507033544 63 0.0 0.0 0.00 0.00 0.00 73 1013.6
20260507031540 63 0.0 0.0 0.00 0.00 0.00 73 1013.4
20260507025536 63 0.0 0.0 0.00 0.00 0.00 73 1013.3
20260507023532 63 0.0 0.0 0.00 0.00 0.00 79 1013.6
20260507021528 63 0.0 0.0 0.00 0.00 0.00 78 1013.8
20260507015524 63 0.0 0.0 0.00 0.00 0.00 78 1013.4
20260507013520 64 0.0 0.0 0.00 0.00 0.00 78 1013.8
20260507011516 63 0.0 0.0 0.00 0.00 0.00 78 1013.9
20260507005512 64 0.0 0.0 0.00 0.00 0.00 77 1014.1
20260507003508 64 0.0 0.0 0.00 0.00 0.00 74 1014.0
20260507001504 66 0.0 0.0 0.00 0.00 0.00 64 1014.0
20260506235500 66 0.0 0.0 0.00 0.00 0.00 55 1013.9
20260506233456 66 0.0 0.0 0.00 0.00 0.00 59 1014.0
20260506231452 66 0.0 0.0 0.00 0.00 0.00 62 1013.9
20260506225448 65 0.0 0.0 0.00 0.00 0.00 65 1013.8
20260506223444 65 0.0 0.0 0.00 0.00 0.00 69 1013.6
20260506221440 65 0.0 0.0 0.00 0.00 0.00 71 1013.7
20260506215436 65 0.0 0.0 0.00 0.00 0.00 70 1013.8
20260506213433 65 0.0 0.0 0.00 0.00 0.00 69 1013.6
20260506211429 64 0.0 0.0 0.00 0.00 0.00 69 1013.2
20260506205425 64 0.0 0.0 0.00 0.00 0.00 68 1013.4
20260506203421 64 0.0 0.0 0.00 0.00 0.00 69 1014.0
20260506201417 64 0.0 0.0 0.00 0.00 0.00 68 1014.6
20260506195413 65 0.0 0.0 0.00 0.00 0.00 67 1014.8
20260506191405 65 0.0 0.0 0.00 0.00 0.00 69 1014.9
20260506185401 65 0.0 0.0 0.00 0.00 0.00 70 1014.8
20260506183357 65 0.0 0.0 0.00 0.00 0.00 72 1014.5
20260506181353 65 0.0 0.0 0.00 0.00 0.00 71 1014.5
20260506175349 66 0.0 0.0 0.00 0.00 0.00 70 1014.1
20260506173345 66 0.0 0.0 0.00 0.00 0.00 70 1014.0
20260506171341 66 0.0 0.0 0.00 0.00 0.00 69 1014.1
20260506165337 67 0.0 0.0 0.00 0.00 0.00 70 1014.2
20260506163333 67 0.0 0.0 0.00 0.00 0.00 68 1014.4
20260506161329 68 0.0 0.0 0.00 0.00 0.00 66 1014.6
20260506155325 68 0.0 0.0 0.00 0.00 0.00 68 1014.6
20260506153322 68 0.0 0.0 0.00 0.00 0.00 68 1014.9
20260506151317 69 0.0 0.0 0.00 0.00 0.00 68 1014.7
20260506145313 69 0.0 0.0 0.00 0.00 0.00 67 1015.0
20260506143310 68 0.0 0.0 0.00 0.00 0.00 68 1014.3
20260506141306 70 0.0 0.0 0.00 0.00 0.00 66 1014.4
20260506135302 71 0.0 0.0 0.00 0.00 0.00 63 1014.4
20260506133258 71 0.0 0.0 0.00 0.00 0.00 60 1014.1
20260506131254 71 0.0 0.0 0.00 0.00 0.00 62 1014.5
20260506125250 70 0.0 0.0 0.00 0.00 0.00 64 1014.9
20260506123246 71 0.0 0.0 0.00 0.00 0.00 63 1014.9
20260506121243 72 0.0 0.0 0.00 0.00 0.00 58 1014.9
20260506115239 72 0.0 0.0 0.00 0.00 0.00 53 1014.9
20260506113236 73 0.0 0.0 0.00 0.00 0.00 47 1015.1
20260506111232 73 0.0 0.0 0.00 0.00 0.00 48 1015.3
20260506105229 74 0.0 0.0 0.00 0.00 0.00 45 1015.3
20260506103226 74 0.0 0.0 0.00 0.00 0.00 42 1015.4
20260506101222 73 0.0 0.0 0.00 0.00 0.00 38 1015.5
20260506095217 72 0.0 0.0 0.00 0.00 0.00 40 1015.6